{"data":{"norad_id":64884,"intl_designator":"2025-155J","name":"2025-155J","alt_names":[],"object_type":"PAYLOAD","status":"ACTIVE","operator":null,"country":"TBD","launch_date":"2025-07-25","launch_site_code":"VOSTO","launch_vehicle":null,"mission":null,"orbit_class":"UNKNOWN","rcs_meters":null,"size_class":null,"mass_kg":null,"dimensions":null,"purposes":[],"wikipedia_slug":null,"has_3d_model":false,"image_url":null,"decayed_at":null,"tle_current":{"epoch":"2026-05-25T03:07:04.199808Z","epoch_age_seconds":59957,"freshness":"FRESH","line1":"1 64884U 25155J   26145.12990972  .00009836  00000+0  35091-3 0  9991","line2":"2 64884  97.4551 113.5626 0005244 248.9473 111.1207 15.29076111 77234","mean_motion":15.29076111,"eccentricity":0.0005244,"inclination_deg":97.4551,"raan_deg":113.5626,"arg_perigee_deg":248.9473,"mean_anomaly_deg":111.1207,"bstar":0.00035091,"rev_number":7723,"period_min":94.174514246924,"perigee_km":474.97719599302,"apogee_km":482.16851328857,"semimajor_km":6856.7098546408,"source":"CELESTRAK","updated_at":"2026-05-25T13:38:04.871979Z"}}}